Weather History for Glens Falls, NY

Change the Weather History Date:

Friday, March 28, 2014

  Actual Average Record
Temperature  
Mean Temperature 38 °F 36 °F  
Max Temperature 44 °F 48 °F 76 °F (1998)
Min Temperature 31 °F 25 °F 8 °F (1982)
Degree Days  
Heating Degree Days 27 28  
Month to date heating degree days 1230 960  
Since 1 July heating degree days 6999 6580  
Cooling Degree Days 0 0  
Month to date cooling degree days 0 0  
Year to date cooling degree days 0 0  
Moisture  
Dew Point 34 °F    
Average Humidity 65    
Maximum Humidity 93    
Minimum Humidity 37    
Precipitation  
Precipitation 0.25 in 0.09 in 1.09 in (2005)
Month to date precipitation 1.78 2.66  
Year to date precipitation 6.31 7.60  
Sea Level Pressure  
Sea Level Pressure 30.00 in    
Wind  
Wind Speed 6 mph (SSW)    
Max Wind Speed 18 mph    
Max Gust Speed 24 mph    
Visibility 4 miles    
Events Rain , Snow    
T = Trace of Precipitation, MM = Missing Value Source: NWS Daily Summary

Daily Weather History Graph

Daily Weather History Graph

Search for Another Location

Airport:

Trip Planner

Search our weather history database for the weather conditions in past years. The results will help you decide how hot, cold, wet, or windy it might be!

Date:

Astronomy

Mar. 28, 2014 Rise Set
Actual Time 6:43 AM EDT 7:16 PM EDT
Civil Twilight 6:14 AM EDT 7:44 PM EDT
Nautical Twilight 5:40 AM EDT 8:18 PM EDT
Astronomical Twilight 5:06 AM EDT 8:53 PM EDT
Moon 5:16 AM EDT 5:06 PM EDT
Length of Visible Light 13h 30m
Length of Day
12h 32m
Waning Crescent, 6% of the Moon is Illuminated
Mar 28
Waning Crescent
Mar 30
New
Apr 7
First Quarter
Apr 15
Full
Apr 22
Last Quarter

Hourly Weather History & Observations

Time (EDT) Temp. Windchill Dew Point Humidity Pressure Visibility Wind Dir Wind Speed Gust Speed Precip Events Conditions
12:53 AM 37.9 °F 30.9 °F 14.0 °F 38% 30.16 in 10.0 mi SSW 10.4 mph - N/A   Overcast
1:53 AM 37.0 °F 28.5 °F 18.0 °F 46% 30.16 in 10.0 mi South 13.8 mph - N/A   Overcast
2:53 AM 34.0 °F 25.0 °F 24.1 °F 67% 30.15 in 10.0 mi SSW 12.7 mph - N/A   Overcast
3:19 AM 33.1 °F 23.9 °F 26.1 °F 75% 30.12 in 2.5 mi SSW 12.7 mph - 0.00 in Snow Light Snow
3:49 AM 32.0 °F 24.8 °F 28.4 °F 87% 30.10 in 1.5 mi South 8.1 mph - 0.00 in Snow Light Snow
3:53 AM 32.0 °F 26.4 °F 28.0 °F 85% 30.13 in 1.5 mi South 5.8 mph - 0.00 in Snow Light Snow
4:09 AM 30.9 °F 24.3 °F 28.9 °F 92% 30.09 in 2.5 mi South 6.9 mph - 0.00 in Snow Light Snow
4:16 AM 30.9 °F 26.2 °F 28.9 °F 92% 30.09 in 5.0 mi South 4.6 mph - 0.00 in   Overcast
4:26 AM 30.9 °F 26.2 °F 28.9 °F 92% 30.09 in 5.0 mi South 4.6 mph - 0.00 in   Overcast
4:53 AM 30.9 °F 27.5 °F 28.0 °F 89% 30.10 in 5.0 mi South 3.5 mph - 0.00 in   Mostly Cloudy
5:11 AM 30.9 °F - 28.9 °F 92% 30.06 in 5.0 mi Calm Calm - N/A   Overcast
5:53 AM 30.9 °F - 28.0 °F 89% 30.09 in 4.0 mi Calm Calm - 0.00 in   Overcast
6:53 AM 32.0 °F - 28.9 °F 88% 30.07 in 4.0 mi Calm Calm - 0.01 in Snow Light Snow
7:22 AM 32.0 °F - 28.9 °F 88% 30.05 in 2.5 mi Calm Calm - 0.01 in Snow Light Snow
7:32 AM 32.0 °F - 30.0 °F 92% 30.05 in 1.0 mi Calm Calm - 0.03 in Snow Light Snow
7:50 AM 32.0 °F - 30.2 °F 93% 30.03 in 2.5 mi Calm Calm - 0.06 in   Overcast
7:53 AM 32.0 °F - 30.0 °F 92% 30.05 in 2.5 mi Calm Calm - 0.07 in   Overcast
8:02 AM 32.0 °F 28.7 °F 28.9 °F 88% 30.04 in 3.0 mi WSW 3.5 mph - 0.00 in   Overcast
8:53 AM 34.0 °F 28.0 °F 30.0 °F 85% 30.04 in 7.0 mi SW 6.9 mph - 0.00 in   Overcast
9:53 AM 35.1 °F 28.6 °F 30.0 °F 82% 30.02 in 7.0 mi SSW 8.1 mph - 0.00 in Rain Light Rain
10:20 AM 35.1 °F 27.4 °F 30.0 °F 82% 29.99 in 7.0 mi SSW 10.4 mph - 0.00 in Rain Light Rain
10:32 AM 35.1 °F 27.9 °F 30.9 °F 85% 29.98 in 6.0 mi SSW 9.2 mph - 0.00 in Rain Light Rain
10:53 AM 35.1 °F 27.4 °F 32.0 °F 89% 30.01 in 6.0 mi SSW 10.4 mph - 0.00 in Rain Light Rain
11:13 AM 35.1 °F 28.6 °F 32.0 °F 89% 29.96 in 3.0 mi SSW 8.1 mph - 0.03 in Rain Light Rain
11:53 AM 36.0 °F 29.0 °F 33.1 °F 89% 29.97 in 4.0 mi SSW 9.2 mph - 0.04 in Rain Light Rain
12:53 PM 36.0 °F 29.6 °F 34.0 °F 93% 29.96 in 5.0 mi SW 8.1 mph - 0.04 in Rain Light Rain
1:26 PM 37.0 °F 33.3 °F 35.1 °F 93% 29.92 in 2.5 mi SSW 4.6 mph - 0.03 in Rain Rain
1:39 PM 37.0 °F 30.4 °F 35.1 °F 93% 29.92 in 3.0 mi SSW 9.2 mph - 0.04 in Rain Light Rain
1:53 PM 37.0 °F 31.6 °F 35.1 °F 93% 29.94 in 3.0 mi SW 6.9 mph - 0.06 in Rain Light Rain
2:53 PM 37.9 °F 32.7 °F 36.0 °F 93% 29.93 in 5.0 mi SW 6.9 mph - 0.01 in Rain Light Rain
3:29 PM 37.9 °F 32.7 °F 36.0 °F 93% 29.90 in 2.0 mi SSW 6.9 mph - 0.00 in Rain Light Rain
3:53 PM 39.0 °F 35.7 °F 37.0 °F 93% 29.92 in 2.5 mi SSW 4.6 mph - 0.00 in Rain Light Rain
4:53 PM 39.0 °F 35.7 °F 37.9 °F 96% 29.91 in 3.0 mi SSW 4.6 mph - 0.00 in   Overcast
5:17 PM 39.9 °F 36.7 °F 37.9 °F 93% 29.90 in 2.0 mi SW 4.6 mph - N/A   Overcast
5:53 PM 39.9 °F 35.1 °F 37.9 °F 93% 29.91 in 2.0 mi SSW 6.9 mph - N/A   Overcast
6:44 PM 41.0 °F 37.1 °F 39.9 °F 96% 29.90 in 3.0 mi WSW 5.8 mph - N/A   Overcast
6:53 PM 41.0 °F 38.0 °F 39.9 °F 96% 29.92 in 2.5 mi SW 4.6 mph - N/A   Overcast
7:27 PM 41.0 °F 38.0 °F 39.9 °F 96% 29.91 in 4.0 mi WSW 4.6 mph - N/A   Overcast
7:40 PM 39.9 °F - 37.9 °F 93% 29.90 in 2.0 mi Calm Calm - N/A   Overcast
7:53 PM 39.0 °F 34.8 °F 37.9 °F 96% 29.94 in 1.5 mi WNW 5.8 mph - N/A   Overcast
8:04 PM 41.0 °F 37.1 °F 39.9 °F 96% 29.91 in 3.0 mi West 5.8 mph - N/A   Overcast
8:22 PM 39.0 °F 34.8 °F 37.9 °F 96% 29.93 in 2.0 mi West 5.8 mph - 0.01 in Rain Light Rain
8:53 PM 39.9 °F - 39.0 °F 97% 29.98 in 2.5 mi Calm Calm - 0.02 in Rain Light Rain
9:06 PM 39.0 °F - 39.0 °F 100% 29.96 in 0.8 mi Calm Calm - 0.00 in   Overcast
9:19 PM 39.0 °F 34.8 °F 37.0 °F 93% 29.96 in 2.0 mi South 5.8 mph - 0.00 in   Overcast
9:25 PM 39.9 °F 37.8 °F 39.0 °F 97% 29.96 in 4.0 mi SSW 3.5 mph - 0.00 in   Overcast
9:34 PM 41.0 °F 38.0 °F 39.9 °F 96% 29.97 in 3.0 mi Variable 4.6 mph - 0.00 in   Overcast
9:49 PM 41.0 °F 38.0 °F 39.2 °F 93% 29.98 in 2.5 mi SSW 4.6 mph - 0.00 in   Overcast
9:53 PM 41.0 °F 36.4 °F 39.9 °F 96% 30.00 in 3.0 mi South 6.9 mph - 0.00 in   Overcast
10:32 PM 41.0 °F - 41.0 °F 100% 30.00 in 2.5 mi Calm Calm - N/A   Overcast
10:50 PM 39.2 °F 37.0 °F 39.2 °F 100% 30.01 in 3.0 mi South 3.5 mph - N/A   Overcast
10:53 PM 41.0 °F 37.1 °F 39.9 °F 96% 30.03 in 3.0 mi South 5.8 mph - N/A   Overcast
11:10 PM 42.1 °F 37.1 °F 41.0 °F 96% 30.02 in 5.0 mi SSW 8.1 mph - N/A   Overcast
11:53 PM 41.0 °F 35.8 °F 37.9 °F 89% 30.08 in 7.0 mi SSE 8.1 mph - N/A   Overcast